Taos, NM

1:26 PM MDT on April 28, 2017 (GMT -0600)
Taos Municipal

Weather History for KSKX - July, 2011

Change the Weather History Date:

Friday, July 8, 2011

  Actual Average Record
Temperature  
Mean Temperature 76 °F -  
Max Temperature 89 °F 82 °F 93 °F (2003)
Min Temperature 62 °F 48 °F 41 °F (1997)
Cooling Degree Days 10    
Growing Degree Days 26 (Base 50)    
Moisture  
Dew Point 43 °F    
Average Humidity 33    
Maximum Humidity 59    
Minimum Humidity 16    
Precipitation  
Precipitation 0.00 in - - ()
Sea Level Pressure  
Sea Level Pressure 30.22 in    
Wind  
Wind Speed 12 mph (SW)    
Max Wind Speed 21 mph    
Max Gust Speed 29 mph    
Visibility 10 miles    
Events Thunderstorm    
Averages and records for this station are not official NWS values.
T = Trace of Precipitation, MM = Missing Value Source: NWS Daily Summary

Daily Weather History Graph

Daily Weather History Graph

Search for Another Location

Airport or City:

Trip Planner

Search our weather history database for the weather conditions in past years. The results will help you decide how hot, cold, wet, or windy it might be!

Date:

Astronomy

Jul. 08, 2011 Rise Set
Actual Time 5:51 AM MDT 8:23 PM MDT
Civil Twilight 5:21 AM MDT 8:53 PM MDT
Nautical Twilight 4:44 AM MDT 9:30 PM MDT
Astronomical Twilight 4:02 AM MDT 10:12 PM MDT
Moon 2:00 PM MDT (7/8) 12:17 AM MDT (7/8)
Length of Visible Light 15h 31m
Length of Day
14h 31m
First Quarter, 55% of the Moon is Illuminated
Jul 8
First Quarter
Jul 15
Full
Jul 22
Last Quarter
Jul 30
New
Aug 6
First Quarter

Hourly Weather History & Observations

Time (MDT) Temp. Dew Point Humidity Pressure Visibility Wind Dir Wind Speed Gust Speed Precip Events Conditions
12:15 AM 71.6 °F 46.4 °F 41% 30.28 in 10.0 mi ESE 17.3 mph - N/A   Overcast
12:35 AM 71.6 °F 46.4 °F 41% 30.28 in 10.0 mi ESE 15.0 mph 18.4 mph N/A   Overcast
12:55 AM 71.6 °F 46.4 °F 41% 30.28 in 10.0 mi ESE 11.5 mph - N/A   Overcast
1:15 AM 71.6 °F 46.4 °F 41% 30.27 in 10.0 mi ESE 15.0 mph - N/A   Overcast
1:35 AM 71.6 °F 46.4 °F 41% 30.27 in 10.0 mi ESE 17.3 mph 20.7 mph N/A   Mostly Cloudy
1:55 AM 69.8 °F 46.4 °F 43% 30.26 in 10.0 mi ESE 16.1 mph - N/A   Mostly Cloudy
2:15 AM 69.8 °F 46.4 °F 43% 30.25 in 10.0 mi ESE 12.7 mph - N/A   Mostly Cloudy
2:35 AM 69.8 °F 46.4 °F 43% 30.24 in 10.0 mi ESE 11.5 mph 17.3 mph N/A   Scattered Clouds
2:55 AM 69.8 °F 46.4 °F 43% 30.24 in 10.0 mi ESE 12.7 mph - N/A   Clear
3:15 AM 69.8 °F 48.2 °F 46% 30.24 in 10.0 mi ESE 13.8 mph - N/A   Clear
3:35 AM 68.0 °F 46.4 °F 46% 30.25 in 10.0 mi ESE 11.5 mph - N/A   Clear
3:55 AM 66.2 °F 48.2 °F 52% 30.25 in 10.0 mi ESE 11.5 mph - N/A   Clear
4:15 AM 66.2 °F 48.2 °F 52% 30.25 in 10.0 mi ESE 13.8 mph 18.4 mph N/A   Clear
4:35 AM 66.2 °F 48.2 °F 52% 30.25 in 10.0 mi East 10.4 mph - N/A   Clear
4:55 AM 64.4 °F 48.2 °F 56% 30.25 in 10.0 mi East 8.1 mph - N/A   Clear
5:15 AM 62.6 °F 44.6 °F 52% 30.25 in 10.0 mi ESE 6.9 mph - N/A   Clear
5:35 AM 62.6 °F 46.4 °F 55% 30.25 in 10.0 mi East 9.2 mph - N/A   Clear
5:55 AM 62.6 °F 48.2 °F 59% 30.25 in 10.0 mi ESE 8.1 mph - N/A   Clear
6:35 AM 62.6 °F 48.2 °F 59% 30.26 in 10.0 mi East 8.1 mph - N/A   Clear
6:55 AM 64.4 °F 46.4 °F 52% 30.26 in 10.0 mi East 5.8 mph - N/A   Clear
7:15 AM 64.4 °F 44.6 °F 49% 30.27 in 10.0 mi NE 3.5 mph - N/A   Clear
7:35 AM 64.4 °F 42.8 °F 45% 30.27 in 10.0 mi NNE 4.6 mph - N/A   Clear
7:55 AM 68.0 °F 44.6 °F 43% 30.28 in 10.0 mi NNE 3.5 mph - N/A   Clear
8:15 AM 69.8 °F 44.6 °F 40% 30.28 in 10.0 mi Calm Calm - N/A   Clear
8:35 AM 71.6 °F 44.6 °F 38% 30.28 in 10.0 mi Calm Calm - N/A   Clear
8:55 AM 73.4 °F 44.6 °F 36% 30.28 in 10.0 mi Calm Calm - N/A   Clear
9:15 AM 75.2 °F 44.6 °F 34% 30.28 in 10.0 mi Calm Calm - N/A   Clear
9:35 AM 75.2 °F 44.6 °F 34% 30.28 in 10.0 mi Calm Calm - N/A   Clear
9:55 AM 77.0 °F 44.6 °F 32% 30.27 in 10.0 mi West 5.8 mph - N/A   Clear
10:15 AM 78.8 °F 44.6 °F 30% 30.27 in 10.0 mi Calm Calm - N/A   Clear
10:35 AM 80.6 °F 44.6 °F 28% 30.26 in 10.0 mi SW 6.9 mph - N/A   Clear
10:55 AM 82.4 °F 42.8 °F 25% 30.26 in 10.0 mi South 8.1 mph - N/A   Clear
11:15 AM 82.4 °F 42.8 °F 25% 30.25 in 10.0 mi WNW 4.6 mph 16.1 mph N/A   Clear
11:35 AM 82.4 °F 42.8 °F 25% 30.25 in 10.0 mi WSW 9.2 mph 17.3 mph N/A   Clear
12:15 PM 86.0 °F 42.8 °F 22% 30.24 in 10.0 mi SW 12.7 mph 18.4 mph N/A   Clear
12:35 PM 87.8 °F 41.0 °F 19% 30.23 in 10.0 mi SW 11.5 mph 23.0 mph N/A   Clear
12:55 PM 87.8 °F 39.2 °F 18% 30.22 in 10.0 mi West 13.8 mph 20.7 mph N/A   Clear
1:15 PM 89.6 °F 37.4 °F 16% 30.21 in 10.0 mi SSW 16.1 mph 24.2 mph N/A   Partly Cloudy
1:35 PM 89.6 °F 37.4 °F 16% 30.20 in 10.0 mi West 16.1 mph 27.6 mph N/A   Partly Cloudy
1:55 PM 89.6 °F 39.2 °F 17% 30.18 in 10.0 mi SW 12.7 mph 26.5 mph N/A   Partly Cloudy
2:15 PM 89.6 °F 39.2 °F 17% 30.18 in 10.0 mi West 17.3 mph 24.2 mph N/A   Clear
2:35 PM 89.6 °F 39.2 °F 17% 30.17 in 10.0 mi SSW 13.8 mph 21.9 mph N/A   Partly Cloudy
2:55 PM 89.6 °F 39.2 °F 17% 30.17 in 10.0 mi West 16.1 mph 25.3 mph N/A   Partly Cloudy
3:15 PM 87.8 °F 39.2 °F 18% 30.17 in 10.0 mi NW 12.7 mph 19.6 mph N/A   Scattered Clouds
3:35 PM 87.8 °F 39.2 °F 18% 30.15 in 10.0 mi NW 17.3 mph 24.2 mph N/A   Scattered Clouds
3:55 PM 86.0 °F 39.2 °F 19% 30.15 in 10.0 mi NW 9.2 mph 17.3 mph N/A   Partly Cloudy
4:15 PM 89.6 °F 41.0 °F 18% 30.15 in 10.0 mi NW 9.2 mph 27.6 mph N/A   Partly Cloudy
4:35 PM 87.8 °F 39.2 °F 18% 30.14 in 8.0 mi West 9.2 mph - N/A   Scattered Clouds
4:55 PM 87.8 °F 39.2 °F 18% 30.14 in 10.0 mi WNW 16.1 mph 24.2 mph N/A   Scattered Clouds
5:15 PM 86.0 °F 39.2 °F 19% 30.14 in 10.0 mi NW 19.6 mph 28.8 mph N/A Thunderstorm Clear
5:35 PM 87.8 °F 39.2 °F 18% 30.14 in 10.0 mi WNW 15.0 mph 19.6 mph N/A   Clear
6:15 PM 84.2 °F 37.4 °F 19% 30.13 in 10.0 mi West 12.7 mph 16.1 mph N/A   Clear
6:35 PM 82.4 °F 37.4 °F 20% 30.14 in 10.0 mi West 15.0 mph 25.3 mph N/A   Clear
6:55 PM 80.6 °F 37.4 °F 21% 30.14 in 10.0 mi West 12.7 mph - N/A   Clear
7:15 PM 80.6 °F 35.6 °F 20% 30.14 in 10.0 mi WNW 15.0 mph - N/A   Clear
7:35 PM 78.8 °F 39.2 °F 24% 30.15 in 10.0 mi WNW 15.0 mph 28.8 mph N/A   Clear
7:55 PM 77.0 °F 39.2 °F 26% 30.16 in 10.0 mi NW 10.4 mph - N/A   Clear
8:15 PM 75.2 °F 39.2 °F 27% 30.16 in 10.0 mi NW 4.6 mph - N/A   Scattered Clouds
8:35 PM 75.2 °F 39.2 °F 27% 30.17 in 10.0 mi SW 5.8 mph - N/A   Overcast
8:55 PM 75.2 °F 39.2 °F 27% 30.18 in 10.0 mi SSW 10.4 mph - N/A   Overcast
9:15 PM 75.2 °F 41.0 °F 29% 30.19 in 10.0 mi SSW 20.7 mph 28.8 mph N/A   Overcast
9:35 PM 73.4 °F 41.0 °F 31% 30.20 in 7.0 mi SSW 19.6 mph 40.3 mph N/A   Overcast
9:55 PM 73.4 °F 39.2 °F 29% 30.17 in 9.0 mi North 4.6 mph 27.6 mph N/A   Mostly Cloudy
10:15 PM 75.2 °F 37.4 °F 25% 30.16 in 10.0 mi Calm Calm - N/A   Partly Cloudy
10:35 PM 73.4 °F 37.4 °F 27% 30.17 in 10.0 mi South 6.9 mph - N/A   Clear
10:55 PM 68.0 °F 37.4 °F 33% 30.17 in 10.0 mi SSE 3.5 mph - N/A   Clear
11:15 PM 64.4 °F 39.2 °F 40% 30.18 in 10.0 mi NE 3.5 mph - N/A   Scattered Clouds
11:35 PM 66.2 °F 39.2 °F 37% 30.18 in 10.0 mi Calm Calm - N/A   Partly Cloudy